Melbourne, FL

8:37 PM EST on February 05, 2016 (GMT -0500)
Melbourne International

Weather History for KMLB - August, 2014

Change the Weather History Date:

Friday, August 15, 2014

  Actual Average Record
Temperature  
Mean Temperature 82 °F 82 °F  
Max Temperature 91 °F 91 °F 98 °F (1963)
Min Temperature 73 °F 73 °F 67 °F (1976)
Degree Days  
Heating Degree Days 0 0  
Month to date heating degree days 0 0  
Since 1 June heating degree days 0 0  
Since 1 July heating degree days 0 0  
Cooling Degree Days 17 17  
Month to date cooling degree days 280 255  
Year to date cooling degree days 2184 1959  
Since 1 June cooling degree days 1291 1233  
Growing Degree Days 31 (Base 50)    
Moisture  
Dew Point 73 °F    
Average Humidity 82    
Maximum Humidity 100    
Minimum Humidity 64    
Precipitation  
Precipitation 0.74 in 0.25 in 1.37 in (2011)
Month to date precipitation 2.53 3.70  
Year to date precipitation 36.01 29.87  
Sea Level Pressure  
Sea Level Pressure 30.02 in    
Wind  
Wind Speed 6 mph (SW)    
Max Wind Speed 18 mph    
Max Gust Speed 25 mph    
Visibility 8 miles    
Events Rain , Thunderstorm    
T = Trace of Precipitation, MM = Missing Value Source: NWS Daily Summary

Daily Weather History Graph

Daily Weather History Graph

Search for Another Location

Airport or City:

Trip Planner

Search our weather history database for the weather conditions in past years. The results will help you decide how hot, cold, wet, or windy it might be!

Date:

Astronomy

Aug. 15, 2014 Rise Set
Actual Time 6:52 AM EDT 8:01 PM EDT
Civil Twilight 6:27 AM EDT 8:25 PM EDT
Nautical Twilight 5:58 AM EDT 8:54 PM EDT
Astronomical Twilight 5:28 AM EDT 9:24 PM EDT
Moon 11:36 PM EDT (8/15) 12:01 PM EDT (8/15)
Length of Visible Light 13h 57m
Length of Day
13h 08m
Waning Gibbous, 69% of the Moon is Illuminated
Aug 15
Waning Gibbous
Aug 17
Last Quarter
Aug 25
New
Sep 2
First Quarter
Sep 8
Full

Hourly Weather History & Observations

Time (EDT) Temp. Heat Index Dew Point Humidity Pressure Visibility Wind Dir Wind Speed Gust Speed Precip Events Conditions
12:53 AM 78.1 °F - 73.9 °F 87% 29.99 in 10.0 mi South 10.4 mph - N/A   Clear
1:53 AM 78.1 °F - 75.0 °F 90% 29.99 in 10.0 mi SW 6.9 mph - N/A   Clear
2:53 AM 78.1 °F - 75.9 °F 93% 29.98 in 10.0 mi WSW 4.6 mph - N/A   Clear
3:53 AM 77.0 °F - 75.0 °F 94% 29.99 in 10.0 mi West 3.5 mph - N/A   Clear
4:53 AM 75.9 °F - 75.0 °F 97% 29.99 in 10.0 mi Calm Calm - N/A   Clear
5:53 AM 75.9 °F - 73.9 °F 94% 30.01 in 10.0 mi West 3.5 mph - N/A   Clear
6:53 AM 75.9 °F - 73.9 °F 94% 30.01 in 10.0 mi WSW 3.5 mph - N/A   Clear
7:53 AM 78.1 °F - 75.9 °F 93% 30.02 in 10.0 mi WSW 3.5 mph - N/A   Clear
8:53 AM 81.0 °F 87.3 °F 75.9 °F 85% 30.03 in 10.0 mi SW 8.1 mph - N/A   Clear
10:53 AM 87.1 °F 98.8 °F 77.0 °F 72% 30.04 in 10.0 mi WSW 8.1 mph - N/A   Scattered Clouds
11:53 AM 89.1 °F 100.2 °F 75.9 °F 65% 30.04 in 10.0 mi WNW 10.4 mph - N/A   Mostly Cloudy
12:30 PM 86.0 °F 93.0 °F 73.0 °F 65% 30.02 in 10.0 mi WNW 11.5 mph - N/A Thunderstorm Mostly Cloudy
12:38 PM 86.0 °F 93.0 °F 73.0 °F 65% 30.02 in 10.0 mi Variable 5.8 mph - N/A Thunderstorm Thunderstorm
12:53 PM 84.9 °F 93.3 °F 75.0 °F 72% 30.01 in 10.0 mi Variable 4.6 mph - N/A Thunderstorm Thunderstorm
1:16 PM 84.0 °F 89.6 °F 72.0 °F 67% 30.01 in 10.0 mi NE 10.4 mph - N/A Thunderstorm Mostly Cloudy
1:30 PM 82.0 °F 86.3 °F 71.1 °F 69% 30.03 in 10.0 mi North 8.1 mph - N/A Thunderstorm Thunderstorm
1:38 PM 75.9 °F - 72.0 °F 87% 30.03 in 1.0 mi SW 18.4 mph 24.2 mph N/A Rain , Thunderstorm Heavy Thunderstorms and Rain
1:53 PM 73.9 °F - 71.1 °F 91% 30.01 in 2.0 mi SSE 11.5 mph - N/A Rain , Thunderstorm Heavy Thunderstorms and Rain
2:26 PM 73.9 °F - 71.1 °F 91% 30.01 in 3.0 mi WSW 9.2 mph - N/A Rain , Thunderstorm Light Thunderstorms and Rain
2:53 PM 73.9 °F - 72.0 °F 93% 30.02 in 3.0 mi SSW 8.1 mph - N/A Rain , Thunderstorm Thunderstorms and Rain
2:55 PM 73.9 °F - 72.0 °F 93% 30.01 in 1.0 mi SSW 6.9 mph - 0.00 in Rain , Thunderstorm Light Rain
2:58 PM 73.9 °F - 72.0 °F 93% 30.01 in 4.0 mi South 5.8 mph - 0.00 in Rain , Thunderstorm Light Rain
3:22 PM 75.0 °F - 73.0 °F 94% 30.03 in 10.0 mi West 11.5 mph - 0.00 in Rain , Thunderstorm Light Thunderstorms and Rain
3:32 PM 75.0 °F - 72.0 °F 90% 30.02 in 2.0 mi West 8.1 mph - 0.00 in Rain , Thunderstorm Light Rain
3:39 PM 75.0 °F - 73.0 °F 94% 30.01 in 3.0 mi West 8.1 mph - 0.02 in Rain , Thunderstorm Heavy Thunderstorms and Rain
3:53 PM 75.0 °F - 73.0 °F 94% 30.00 in 10.0 mi WSW 6.9 mph - 0.02 in Rain , Thunderstorm Light Rain
4:17 PM 75.0 °F - 73.9 °F 96% 30.01 in 9.0 mi South 4.6 mph - 0.00 in Rain Light Rain
4:37 PM 75.0 °F - 73.0 °F 94% 30.03 in 10.0 mi South 9.2 mph - 0.00 in Rain , Thunderstorm Light Rain
4:53 PM 75.0 °F - 73.0 °F 94% 30.04 in 10.0 mi SSW 6.9 mph - 0.00 in Rain , Thunderstorm Light Rain
5:15 PM 75.0 °F - 73.9 °F 96% 30.06 in 8.0 mi West 8.1 mph - 0.00 in Rain , Thunderstorm Light Rain
5:53 PM 73.9 °F - 71.1 °F 91% 30.05 in 5.0 mi Calm Calm - 0.00 in Rain , Thunderstorm Light Rain
6:53 PM 73.9 °F - 72.0 °F 93% 30.02 in 10.0 mi South 5.8 mph - 0.00 in Rain , Thunderstorm Light Rain
7:00 PM 73.9 °F - 72.0 °F 93% 30.01 in 10.0 mi South 5.8 mph - 0.00 in Rain Light Rain
7:53 PM 73.9 °F - 72.0 °F 93% 30.02 in 10.0 mi SSW 4.6 mph - 0.00 in   Clear
8:53 PM 75.0 °F - 73.9 °F 96% 30.03 in 10.0 mi SSW 3.5 mph - N/A   Clear
9:53 PM 75.0 °F - 73.0 °F 94% 30.03 in 10.0 mi SSE 4.6 mph - N/A   Clear
10:53 PM 75.0 °F - 73.0 °F 94% 30.04 in 10.0 mi South 5.8 mph - N/A   Clear
11:23 PM 75.0 °F - 73.0 °F 94% 30.04 in 10.0 mi South 8.1 mph - N/A   Mostly Cloudy
11:39 PM 75.0 °F - 73.0 °F 94% 30.04 in 10.0 mi South 5.8 mph - N/A   Partly Cloudy
11:53 PM 75.0 °F - 73.0 °F 94% 30.04 in 10.0 mi South 4.6 mph - N/A   Clear